IW1QLH-13 Weather Reports


time (UTC)temp
F
wind
direction
speed
knots
gust
knots
rain 1hr
in
rain 24hr
in
rain mn
in
humidity
%
barometer
mb
20260508015022 0 1.7 2.6 0.00 0.00 0.00 1005.0
20260508013954 0 1.7 3.5 0.00 0.00 0.00 1005.1
20260508012925 0 1.7 2.6 0.00 0.00 0.00 1005.2
20260508011856 0 0.9 2.6 0.00 0.00 0.00 1005.2
20260508010826 0 0.9 2.6 0.00 0.00 0.00 1005.3
20260508005756 0 1.7 3.5 0.00 0.00 0.00 1005.4
20260508004728 0 0.9 2.6 0.00 0.00 0.00 1005.5
20260508003658 0 0.0 1.7 0.00 0.00 0.00 1005.8
20260508002629 0 0.0 0.9 0.00 0.00 0.00 1005.8
20260508001251 0 0.0 0.0 0.00 0.00 0.00 1006.0
20260508000222 0 0.0 0.0 0.00 0.00 0.00 1006.0
20260507234842 0 0.0 0.0 0.00 0.00 0.00 1006.3
20260507233709 0 0.0 0.9 0.00 0.00 0.00 1006.4
20260507232640 0 0.0 0.0 0.00 0.00 0.00 1006.3
20260507231506 0 0.0 0.0 0.00 0.00 0.00 1006.4
20260507225919 0 0.0 0.9 0.00 0.00 0.00 1006.5
20260507224849 0 0.0 0.0 0.00 0.00 0.00 1006.7
20260507222853 0 0.0 0.9 0.00 0.00 0.00 1006.6
20260507221823 0 0.0 0.0 0.00 0.00 0.00 1006.8
20260507220752 0 0.0 0.9 0.00 0.00 0.00 1006.7
20260507215722 0 0.0 0.9 0.00 0.00 0.00 1006.5
20260507214651 0 0.0 0.0 0.00 0.00 0.00 1006.6
20260507213411 0 0.0 0.9 0.00 0.00 0.00 1006.4
20260507212236 0 0.0 0.0 0.00 0.00 0.00 1006.4
20260507210855 0 0.0 0.0 0.00 0.00 0.00 1006.3
20260507205138 0 0.0 0.9 0.00 0.00 0.00 1006.3
20260507204108 0 0.0 0.9 0.00 0.00 0.00 1006.3
20260507203038 0 0.0 0.0 0.00 0.00 0.00 1006.3
20260507201658 0 0.0 0.0 0.00 0.00 0.00 1006.3
20260507200628 0 0.0 0.0 0.00 0.00 0.00 1006.2
20260507195558 0 0.0 0.0 0.00 0.00 0.00 1006.3
20260507193458 0 0.0 0.0 0.00 0.00 0.00 1006.1
20260507192119 0 0.0 0.0 0.00 0.00 0.00 1005.9
20260507191048 0 0.0 0.9 0.00 0.00 0.00 1005.8
20260507190019 0 0.0 0.9 0.00 0.00 0.00 1005.8
20260507184949 0 0.0 0.9 0.00 0.00 0.00 1005.6
20260507183921 0 0.9 0.9 0.00 0.00 0.00 1005.7
20260507182839 0 0.9 0.9 0.00 0.00 0.00 1005.5
20260507181809 0 0.0 0.9 0.00 0.00 0.00 1005.5
20260507180739 0 0.0 0.9 0.00 0.00 0.00 1005.4
20260507175710 0 0.0 0.9 0.00 0.00 0.00 1005.5
20260507174640 0 0.0 0.9 0.00 0.00 0.00 1005.2
20260507173610 0 0.0 0.9 0.00 0.00 0.00 1005.4
20260507172540 0 0.0 2.6 0.00 0.00 0.00 1005.2
20260507171509 0 0.0 3.5 0.00 0.00 0.00 1005.4
20260507170438 0 0.9 3.5 0.00 0.00 0.00 1005.6
20260507165407 0 0.0 5.2 0.00 0.00 0.00 1005.6
20260507164330 0 0.9 2.6 0.00 0.00 0.00 1005.5
20260507163301 0 1.7 2.6 0.00 0.00 0.00 1005.6
20260507162231 0 0.9 3.5 0.00 0.00 0.00 1005.5
20260507161201 0 2.6 5.2 0.00 0.00 0.00 1005.5
20260507160130 0 1.7 6.1 0.00 0.00 0.00 1005.4
20260507155048 0 2.6 4.3 0.00 0.00 0.00 1005.3
20260507154019 0 1.7 5.2 0.00 0.00 0.00 1005.4
20260507152949 0 0.0 6.1 0.00 0.00 0.00 1005.5
20260507151920 0 3.5 6.1 0.00 0.00 0.00 1005.3
20260507150850 0 1.7 5.2 0.00 0.00 0.00 1005.4
20260507145820 0 1.7 6.1 0.00 0.00 0.00 1005.5
20260507144749 0 1.7 7.8 0.00 0.00 0.00 1005.5
20260507143718 0 3.5 7.0 0.00 0.00 0.00 1005.4
20260507142648 0 1.7 5.2 0.00 0.00 0.00 1005.5
20260507141617 0 1.7 7.8 0.00 0.00 0.00 1005.6
20260507140547 0 2.6 7.8 0.00 0.00 0.00 1005.5
20260507135517 0 3.5 7.0 0.00 0.00 0.00 1005.6
20260507134445 0 3.5 6.1 0.00 0.00 0.00 1005.7
20260507133414 0 3.5 7.0 0.00 0.00 0.00 1005.8
20260507132342 0 6.1 8.7 0.00 0.00 0.00 1006.0
20260507131312 0 3.5 7.0 0.00 0.00 0.00 1006.1
20260507130241 0 0.9 5.2 0.00 0.00 0.00 1006.0
20260507125210 0 3.5 6.1 0.00 0.00 0.00 1006.0
20260507124139 0 3.5 6.1 0.00 0.00 0.00 1005.9
20260507123109 0 1.7 6.1 0.00 0.00 0.00 1005.8
20260507122041 0 3.5 5.2 0.00 0.00 0.00 1005.7
20260507121011 0 3.5 6.1 0.00 0.00 0.00 1005.6
20260507115941 0 3.5 5.2 0.00 0.00 0.00 1005.5
20260507114911 0 1.7 4.3 0.00 0.00 0.00 1005.6
20260507113839 0 0.9 7.0 0.00 0.00 0.00 1005.6
20260507112809 0 1.7 5.2 0.00 0.00 0.00 1005.6
20260507111739 0 2.6 5.2 0.00 0.00 0.00 1005.9
20260507110709 0 1.7 6.1 0.00 0.00 0.00 1006.0
20260507105637 0 0.9 3.5 0.00 0.00 0.00 1005.9
20260507104605 0 0.9 4.3 0.00 0.00 0.00 1006.0
20260507103529 0 3.5 5.2 0.00 0.00 0.00 1005.9
20260507102452 0 0.9 3.5 0.00 0.00 0.00 1005.8
20260507101421 0 0.9 3.5 0.00 0.00 0.00 1005.9
20260507100351 0 0.9 3.5 0.00 0.00 0.00 1005.8
20260507095319 0 1.7 5.2 0.00 0.00 0.00 1005.9
20260507094246 0 4.3 7.0 0.00 0.00 0.00 1005.8
20260507093216 0 1.7 4.3 0.00 0.00 0.00 1005.8
20260507092147 0 2.6 8.7 0.00 0.00 0.00 1005.8
20260507091117 0 1.7 5.2 0.00 0.00 0.00 1005.6
20260507090047 0 3.5 7.8 0.00 0.00 0.00 1005.4
20260507085018 0 3.5 5.2 0.00 0.00 0.00 1005.3
20260507083947 0 0.0 5.2 0.00 0.00 0.00 1005.1
20260507082916 0 1.7 7.0 0.00 0.00 0.00 1005.0
20260507081847 0 3.5 7.8 0.00 0.00 0.00 1005.0
20260507080818 0 2.6 7.0 0.00 0.00 0.00 1004.9
20260507075748 0 2.6 5.2 0.00 0.00 0.00 1004.9
20260507074718 0 0.0 2.6 0.00 0.00 0.00 1005.0
20260507073649 0 2.6 4.3 0.00 0.00 0.00 1004.9
20260507072619 0 1.7 2.6 0.00 0.00 0.00 1004.9
20260507071550 0 0.0 0.9 0.00 0.00 0.00 1004.9
20260507070521 0 0.0 0.0 0.00 0.00 0.00 1004.7
20260507065040 0 0.0 0.0 0.00 0.00 0.00 1004.6
20260507064011 0 0.0 0.9 0.00 0.00 0.00 1004.6
20260507062942 0 0.0 0.9 0.00 0.00 0.00 1004.5
20260507061913 0 0.0 0.0 0.00 0.00 0.00 1004.4
20260507060639 0 0.0 0.0 0.00 0.00 0.00 1004.2
20260507055400 0 0.0 0.0 0.00 0.00 0.00 1004.1
20260507054332 0 0.0 0.0 0.00 0.00 0.00 1004.0
20260507052337 0 0.0 0.0 0.00 0.00 0.00 1004.0
20260507051309 0 0.0 0.0 0.00 0.00 0.00 1003.9
20260507050240 0 0.0 0.0 0.00 0.00 0.00 1003.7
20260507044902 0 0.0 0.0 0.00 0.00 0.00 1003.6
20260507043628 0 0.0 0.0 0.00 0.00 0.00 1003.4
20260507042559 0 0.0 0.0 0.00 0.00 0.00 1003.5
20260507041528 0 0.0 0.0 0.00 0.00 0.00 1003.5
20260507040500 0 0.0 0.0 0.00 0.00 0.00 1003.5
20260507035430 0 0.0 0.9 0.00 0.00 0.00 1003.5
20260507034400 0 0.0 0.0 0.00 0.00 0.00 1003.3
20260507033332 0 0.0 0.0 0.00 0.00 0.00 1003.3
20260507032305 0 0.0 0.0 0.00 0.00 0.00 1003.1
20260507031232 0 0.0 0.9 0.00 0.00 0.00 1003.1
20260507030203 0 0.0 0.0 0.00 0.00 0.00 1003.3
20260507024928 0 0.0 0.0 0.00 0.00 0.00 1003.1
20260507023858 0 0.0 0.0 0.00 0.00 0.00 1003.1
20260507022515 0 0.0 0.0 0.00 0.00 0.00 1003.0
20260507021138 0 0.0 0.9 0.00 0.00 0.00 1003.0
20260507020109 0 0.0 0.0 0.00 0.00 0.00 1002.8